BELINTERSAT-1

Last updated on Thu Oct 30 2025 00:02:50 GMT+0000 (Coordinated Universal Time)

1 41238U 16001A 25301.83909123 .00000117 00000+0 00000+0 0 9999 2 41238 0.0788 65.9961 0001850 165.8320 159.1919 1.00269977 35912
UTC large
Height (km)
Speed (km/s)
/
Latitude / Longitude
Inclination (degrees)
Orbital Period (minutes)
Azimuth
Elevation
Range (km)
Doppler Factor

Next 0 passes for location: London (51.5072 / 0.1276)

Sorry there are no passes over London.